Regional Weather Roundup
Issued by NWS

Home | Current Version | Previous Version | Graphics & Text | Print | Product List | Glossary On
Versions: 1 2 3 4 5 6 7 8 9 10 11 12 13 14 15 16 17 18 19 20 21 22 23 24 25 26 27 28 29 30 31 32 33 34 35 36 37 38 39 40 41 42 43 44 45 46 47 48 49 50
000
ASUS43 KOAX 252102
RWRNE

WEATHER ROUNDUP FOR NEBRASKA
NATIONAL WEATHER SERVICE OMAHA NE
400 PM CDT THU MAY 25 2017

NOTES: SATELLITE DATA IS BEING USED TO AUGMENT CLOUD COVER ABOVE
       12000 FEET.
       "FAIR" INDICATES FEW OR NO CLOUDS BELOW 12,000 FEET WITH NO
       SIGNIFICANT WEATHER AND/OR OBSTRUCTIONS TO VISIBILITY.

  * THESE STATIONS DO NOT REPORT WEATHER SUCH AS RAIN...SNOW OR FOG.

NEZ001>004-019>022-054>056-252200-
NEBRASKA PANHANDLE

CITY           SKY/WX    TMP DP  RH WIND       PRES   REMARKS
SCOTTSBLUFF    LGT RAIN  65  45  48 W14       29.63R
ALLIANCE       CLOUDY    69  45  41 VRB3      29.58R
CHADRON        CLOUDY    70  46  42 W8        29.58R
SIDNEY         CLOUDY    65  50  58 N10       29.60S
$$

NEZ057>060-069>072-079>082-252200-
SOUTHWEST NEBRASKA

CITY           SKY/WX    TMP DP  RH WIND       PRES   REMARKS
NORTH PLATTE   CLOUDY    74  54  49 NE6       29.52R
IMPERIAL       MOSUNNY   73  54  51 N13       29.57R
LEXINGTON      SUNNY     75  56  51 SE9       29.50S
MCCOOK         SUNNY     80  55  42 E10       29.49S
$$

NEZ005>010-023>029-035>040-094-252200-
NORTH CENTRAL NEBRASKA

CITY           SKY/WX    TMP DP  RH WIND       PRES   REMARKS
VALENTINE      PTSUNNY   71  40  32 N9        29.55R
BROKEN BOW     SUNNY     73  52  47 CALM      29.51F
ORD            SUNNY     73  51  46 S8        29.51
$$

NEZ041-046>049-061>064-073>077-083>087-252200-
SOUTH CENTRAL NEBRASKA

CITY           SKY/WX    TMP DP  RH WIND       PRES   REMARKS
GRAND ISLAND   SUNNY     73  52  47 S14G22    29.53S
HASTINGS       SUNNY     75  53  46 S12G17    29.53S
KEARNEY *      SUNNY     73  52  46 S9        29.52F
$$

NEZ011>018-030>034-042>045-252200-
NORTHEAST NEBRASKA

CITY           SKY/WX    TMP DP  RH WIND       PRES   REMARKS
NORFOLK        CLOUDY    70  48  45 S14       29.51R
ALBION         PTSUNNY   75  51  43 S14G22    29.53S
BLAIR          MOSUNNY   75  51  44 S12G17    29.56F
TEKAMAH        PTSUNNY   73  52  47 SE18      29.54F
$$

NEZ050>053-065>068-078-088>093-252200-
SOUTHEAST NEBRASKA

CITY           SKY/WX    TMP DP  RH WIND       PRES   REMARKS
LINCOLN        SUNNY     76  52  43 S18G25    29.52F
OMAHA EPPLEY   MOSUNNY   75  50  41 S16       29.55F
FALLS CITY     SUNNY     75  53  46 S22G31    29.55F
$$

NEZ044-045-051>053-067-252200-
OMAHA AREA

CITY           SKY/WX    TMP DP  RH WIND       PRES   REMARKS
OMAHA EPPLEY   MOSUNNY   75  50  41 S16       29.55F
BLAIR          MOSUNNY   75  51  44 S12G17    29.56F
OFFUTT AFB     MOSUNNY   76  52  42 SE14      29.54F
WAHOO          FAIR      77  49  37 SE17      29.53F
$$




USA.gov is the U.S. government's official web portal to all federal, state and local government web resources and services.